Regional Weather Roundup
Issued by NWS Kansas City/Pleasant Hill, MO

Home | Current Version | Previous Version | Text Only | Print | Product List | Glossary On
Versions: 1 2 3 4 5 6 7 8 9 10 11 12 13 14 15 16 17 18 19 20 21 22 23 24 25 26 27 28 29 30 31 32 33 34 35 36 37 38 39 40 41 42 43 44 45 46 47 48 49 50
000
ASUS43 KEAX 231810
RWREAX

WEATHER ROUNDUP FOR EASTERN KANSAS AND NORTHWEST MISSOURI
NATIONAL WEATHER SERVICE KANSAS CITY/PLEASANT HILL MO
100 PM CDT WED AUG 23 2017

KSZ040-057-103>105-MOZ028-029-037-043-231900-
...KANSAS CITY METROPOLITAN AREA...

CITY           SKY/WX    TMP DP  RH WIND       PRES   REMARKS
K.C. INTL      SUNNY     75  55  49 N5        30.15
6HR MIN TEMP:  56; 6HR MAX TEMP:  76;

K.C. DOWNTOWN  SUNNY     77  54  44 VRB3      30.14F
6HR MIN TEMP:  60; 6HR MAX TEMP:  77;

LEES SUMMIT    SUNNY     75  55  49 E7        30.15F
6HR MIN TEMP:  55; 6HR MAX TEMP:  75;

OLATHE - IXD   SUNNY     74  53  48 CALM      30.15F
6HR MIN TEMP:  56; 6HR MAX TEMP:  76;

OLATHE - OJC   SUNNY     73  53  49 CALM      30.15F
6HR MIN TEMP:  58; 6HR MAX TEMP:  75;

LAWRENCE       SUNNY     77  55  46 N5        30.14F

$$

MOZ001>008-011>017-020>025-030>033-038>040-044>046-053-054-231900-
...NORTHERN AND CENTRAL MISSOURI...

CITY           SKY/WX    TMP DP  RH WIND       PRES   REMARKS
ST. JOSEPH     SUNNY     78  58  49 CALM      30.15F
6HR MIN TEMP:  51; 6HR MAX TEMP:  78;

MOSBY          CLEAR     73  54  49 NW3       30.15F
WARRENSBURG    SUNNY     73  54  49 NE5       30.14F
WHITEMAN AFB   SUNNY     75  55  48 NE8       30.13F
6HR MIN TEMP:  55; 6HR MAX TEMP:  75;

CLINTON        SUNNY     75  55  50 NE8       30.14F
SEDALIA        SUNNY     78  56  46 CALM      30.15F
6HR MIN TEMP:  56; 6HR MAX TEMP:  79;

WARSAW         NOT AVBL
CHILLICOTHE      N/A     78  54  43 CALM      30.15F
6HR MIN TEMP:  52; 6HR MAX TEMP:  78;

KIRKSVILLE     SUNNY     77  50  38 NW10      30.15F
6HR MIN TEMP:  53; 6HR MAX TEMP:  78;


$$

MOZ041-047>049-056>058-063>065-088>090-097-231900-
...EASTERN AND SOUTHERN MISSOURI...

CITY           SKY/WX    TMP DP  RH WIND       PRES   REMARKS
ST. LOUIS INTL MOSUNNY   78  53  41 N13       30.11F
6HR MIN TEMP:  61; 6HR MAX TEMP:  78;

SPIRIT OF STL  MOSUNNY   77  51  40 VRB3      30.10F
COLUMBIA       SUNNY     77  54  44 NE8       30.13F
JEFFERSON CITY SUNNY     76  54  46 N8        30.12F
ROLLA          SUNNY     75  54  47 N6        30.14F
OSAGE BEACH    SUNNY     75  53  46 VRB5      30.14F
SPRINGFIELD    SUNNY     76  56  49 NE6       30.12F
BRANSON        PTSUNNY   75  57  53 CALM      30.13F
JOPLIN         SUNNY     79  58  48 VRB6      30.12F
WEST PLAINS    SUNNY     76  56  49 VRB3      30.12F

$$

IAZ060-094-KSZ022-034>040-054-083-096-NEZ052-066-093-231900-
...KANSAS...SOUTHEAST NEBRASKA AND IOWA...

CITY           SKY/WX    TMP DP  RH WIND       PRES   REMARKS
TOPEKA         SUNNY     77  53  43 VRB3      30.14F
6HR MIN TEMP:  55; 6HR MAX TEMP:  77;

MANHATTAN      SUNNY     77  54  44 E6        30.14F
EMPORIA        SUNNY     75  54  47 E5        30.14F
CHANUTE        SUNNY     78  55  44 NE8       30.13F
WICHITA        SUNNY     81  51  35 E7        30.13F
OMAHA          SUNNY     77  52  41 S5        30.14F
LINCOLN        SUNNY     77  56  48 S8        30.16F
FALLS CITY     SUNNY     76  54  46 VRB3      30.15F
LAMONI         SUNNY     75  52  44 S5        30.15F
DES MOINES     MOSUNNY   78  49  35 W8        30.13F

$$




USA.gov is the U.S. government's official web portal to all federal, state and local government web resources and services.